FENGYUN 1C DEB

Satellite information

Favourite Embed

Satellite Type and Status

DEBRISIN ORBIT

Key statistics

Satellite FENGYUN 1C DEB at a glance.

Uptime

9497

Days in orbit

Revolutions

≈ 14.6

Per day

Orbit

SSO

Sun Synchronous Orbit

Inclination

98.7

Latest

Satellite identification and parameters

Extended collection of information and parameters for FENGYUN 1C DEB.

Object identification

Identified? True

Debris? True

Object name: FENGYUN 1C DEB

International designator: 1999-025ASF

Object number (NORAD): 30721

Object ID (CCSDS): 30721

Country: PEOPLES REPUBLIC OF CHINA (PRC)

Current information (Y/N): Y

RCS size: SMALL

Orbital parameters

Period: 98.428 minutes

Inclination: 98.7006 deg

SMA: 7061.625 km

Apoapsis: 705.645 km

Periapsis: 661.335 km

RAAN: 246.882 deg

Eccentricy: 0.0031374

Argument of periapsis: 296.9448 deg

Mean anomaly: 193.1607 deg

Mean motion: 14.63004893 rev/day

Mean motion (dot): 0.0001519 rev/day2

B* drag term: 0.0029469 1/REarth

Two-line elements (TLE)

Creation date: May 9, 2025, 10:36 p.m.

Reference frame: TEME

Reference center: EARTH

Epoch: May 8, 2025, 7:38 p.m. UTC

TLE line 0: 0 FENGYUN 1C DEB

TLE line 1: 1 30721U 99025ASF 25128.81840238 .00015190 00000-0 29469-2 0 9998

TLE line 2: 2 30721 98.7006 246.8820 0031374 296.9448 193.1607 14.63004893946896

Live tracking on map

Real-time ground track for satellite FENGYUN 1C DEB.

In-orbit conjunctions

A list of the most updated potential collisions computed for object FENGYUN 1C DEB.

Target Orbit TCA Probability of collision Miss distance Type
SL-3 R/B LEO 2025-03-05 23:07:22 0.0001370643 538.0 (m) ROCKET BODY
CZ-4C R/B SSO 2024-06-21 20:35:38 0.0001697007 372.0 (m) ROCKET BODY

Associated space launch

Chinese polar orbiting meteorological satellite

FENGYUN 1C DEB was lifted into orbit during the mission ‘Long March 4B | Feng Yun 1C’, on board a Long March 4B space rocket.

The launch took place on May 10, 1999, 1:33 a.m. from Launch Complex 7.

For more information about the launch, click the button.

Launch to space Long March 4B | Feng Yun 1C
Long March 4B | Feng Yun 1C

Agency: N/A

Status: Launch Successful

Launch date: May 10, 1999, 1:33 a.m. UTC

Rocket: Long March 4B

Launch pad: Launch Complex 7

Location: Taiyuan Satellite Launch Center, People's Republic of China

...

Latest news about this satellite

There are no fresh news available about this satellite. Check back as we update our databases every day.


Newsletter sign-up

Weekly statistics, charts and insights to help you stay on top of the space industry.